Change the Weather History Date:

Saturday, December 8, 2012

  Actual Average Record
Temperature  
Mean Temperature 50 °F -  
Max Temperature 50 °F 47 °F 59 °F (2004)
Min Temperature 46 °F 35 °F 12 °F (2005)
Degree Days  
Heating Degree Days 16    
Moisture  
Dew Point 48 °F    
Average Humidity 96    
Maximum Humidity 100    
Minimum Humidity 89    
Precipitation  
Precipitation 0.00 in - - ()
Sea Level Pressure  
Sea Level Pressure 29.95 in    
Wind  
Wind Speed 3 mph (West)    
Max Wind Speed 9 mph    
Max Gust Speed -    
Averages and records for this station are not official NWS values.
T = Trace of Precipitation, MM = Missing Value Source: NWS Daily Summary

Daily Weather History Graph

Daily Weather History Graph

Search for Another Location

Airport or City:

Trip Planner

Search our weather history database for the weather conditions in past years. The results will help you decide how hot, cold, wet, or windy it might be!

Date:

Astronomy

Dec. 08, 2012 Rise Set
Actual Time 7:07 AM EST 4:31 PM EST
Civil Twilight 6:36 AM EST 5:02 PM EST
Nautical Twilight 6:02 AM EST 5:36 PM EST
Astronomical Twilight 5:29 AM EST 6:09 PM EST
Moon 1:28 AM EST (12/8) 1:00 PM EST (12/8)
Length of Visible Light 10h 25m
Length of Day
9h 24m
Waning Crescent, 28% of the Moon is Illuminated
Dec 8
Waning Crescent
Dec 13
New
Dec 20
First Quarter
Dec 28
Full
Jan 4
Last Quarter

Hourly Weather History & Observations

Time (EST) Temp. Dew Point Humidity Pressure Visibility Wind Dir Wind Speed Gust Speed Precip Events Conditions
12:00 AM 46.0 °F 45.0 °F 96% 30.01 in - Calm Calm - N/A Rain Light Rain
12:23 AM 46.4 °F 46.4 °F 100% 30.00 in - Calm Calm - N/A Rain Rain
12:40 AM 46.4 °F 46.4 °F 100% 30.00 in - Calm Calm - N/A Rain Rain
2:50 AM 48.2 °F 46.4 °F 93% 29.94 in - East 5.8 mph - N/A Rain Rain
2:57 AM 48.2 °F 46.4 °F 93% 29.94 in - ENE 4.6 mph - N/A Rain Rain
3:00 AM 48.0 °F 48.0 °F 100% 29.94 in - ENE 4.6 mph - N/A Rain Rain
4:00 AM 48.0 °F 46.9 °F 96% 29.92 in - Calm Calm - N/A   Overcast
8:00 AM 46.9 °F 46.9 °F 100% 29.90 in - Calm Calm - N/A   Overcast
9:00 AM 48.0 °F 48.0 °F 100% 29.92 in - Calm Calm - N/A   Overcast
10:00 AM 50.0 °F 48.9 °F 96% 29.93 in - WSW 3.5 mph - N/A   Overcast
10:50 AM 51.8 °F 50.0 °F 94% 29.92 in - West 5.8 mph - N/A   Overcast
11:00 AM 51.1 °F 50.0 °F 96% 29.91 in - West 4.6 mph - N/A   Overcast
12:00 PM 51.1 °F 50.0 °F 96% 29.91 in - WSW 9.2 mph - N/A   Overcast
3:00 PM 53.1 °F 50.0 °F 89% 29.89 in - West 5.8 mph - N/A   Overcast
4:00 PM 52.0 °F 50.0 °F 93% 29.91 in - WNW 4.6 mph - N/A   Overcast
5:00 PM 51.1 °F 48.9 °F 92% 29.92 in - West 5.8 mph - N/A   Overcast
6:00 PM 51.1 °F 48.9 °F 92% 29.93 in - West 6.9 mph - N/A   Overcast
7:00 PM 50.0 °F 48.9 °F 96% 29.95 in - West 6.9 mph - N/A   Overcast
7:53 PM 50.0 °F 48.2 °F 94% 29.96 in - Calm Calm - N/A   Overcast
8:00 PM 50.0 °F 48.9 °F 96% 29.96 in - WSW 3.5 mph - N/A   Overcast
9:00 PM 50.0 °F 48.9 °F 96% 29.98 in - West 5.8 mph - N/A   Overcast
10:00 PM 50.0 °F 50.0 °F 100% 29.99 in - WNW 3.5 mph - N/A   Overcast
11:00 PM 50.0 °F 50.0 °F 100% 30.01 in - West 5.8 mph - N/A   Overcast